• In Denmark
  • List of Countries
  • For 7 days
  • Water Temperature
  • Satellite Maps
  • Weather Map
  • Weather Widgets
  • user-avatar
    Login

    Hourly Weather Vodnik

    Today, 23 July, Monday

    Time Temperature Precipitation Wind Pressure Humidity
    00:00 +20°C° 0 mm 4 mps 751 mmHg 80%
    01:00 +20°C° 0 mm 4 mps 751 mmHg 79%
    02:00 +19°C° 0 mm 4 mps 751 mmHg 79%
    03:00 +19°C° 0 mm 3 mps 751 mmHg 78%
    04:00 +19°C° 0.3 mm 4 mps 751 mmHg 78%
    05:00 +19°C° 0.3 mm 4 mps 751 mmHg 78%
    06:00 +19°C° 0.3 mm 5 mps 751 mmHg 78%
    07:00 +19°C° 0.4 mm 5 mps 751 mmHg 77%
    08:00 +20°C° 0.4 mm 5 mps 752 mmHg 76%
    09:00 +21°C° 0.4 mm 5 mps 752 mmHg 75%
    10:00 +23°C° 0.1 mm 6 mps 752 mmHg 70%
    11:00 +26°C° 0.1 mm 6 mps 752 mmHg 66%
    12:00 +27°C° 0.1 mm 6 mps 752 mmHg 62%
    13:00 +28°C° 0.6 mm 6 mps 752 mmHg 61%
    14:00 +29°C° 0.6 mm 6 mps 752 mmHg 60%
    15:00 +29°C° 0.6 mm 6 mps 751 mmHg 59%
    16:00 +28°C° 2 mm 5 mps 751 mmHg 64%
    17:00 +27°C° 2 mm 4 mps 751 mmHg 69%
    18:00 +26°C° 2 mm 4 mps 751 mmHg 74%
    19:00 +25°C° 3.1 mm 4 mps 752 mmHg 76%
    20:00 +23°C° 3.1 mm 5 mps 752 mmHg 78%
    21:00 +22°C° 3.1 mm 5 mps 752 mmHg 80%
    22:00 +22°C° 1.3 mm 5 mps 752 mmHg 79%
    23:00 +21°C° 1.3 mm 4 mps 753 mmHg 78%

    Tomorrow, 24 July, Tuesday

    Time Temperature Precipitation Wind Pressure Humidity
    00:00 +20°C° 1.3 mm 4 mps 753 mmHg 77%
    01:00 +20°C° 0.1 mm 4 mps 753 mmHg 76%
    02:00 +20°C° 0.1 mm 4 mps 753 mmHg 74%
    03:00 +19°C° 0.1 mm 4 mps 753 mmHg 73%
    04:00 +19°C° 0 mm 4 mps 754 mmHg 72%
    05:00 +19°C° 0 mm 4 mps 754 mmHg 71%
    06:00 +20°C° 0 mm 4 mps 754 mmHg 69%
    07:00 +21°C° 0 mm 4 mps 754 mmHg 65%
    08:00 +22°C° 0 mm 5 mps 755 mmHg 60%
    09:00 +23°C° 0 mm 5 mps 755 mmHg 55%
    10:00 +25°C° 0 mm 5 mps 755 mmHg 54%
    11:00 +25°C° 0 mm 5 mps 755 mmHg 53%
    12:00 +26°C° 0 mm 4 mps 755 mmHg 52%
    13:00 +27°C° 0 mm 5 mps 755 mmHg 49%
    14:00 +28°C° 0 mm 6 mps 755 mmHg 46%
    15:00 +30°C° 0 mm 6 mps 755 mmHg 43%
    16:00 +29°C° 0 mm 6 mps 755 mmHg 45%
    17:00 +27°C° 0 mm 6 mps 756 mmHg 47%
    18:00 +26°C° 0 mm 6 mps 756 mmHg 49%
    19:00 +24°C° 0 mm 6 mps 756 mmHg 50%
    20:00 +23°C° 0 mm 6 mps 756 mmHg 50%
    21:00 +21°C° 0 mm 6 mps 756 mmHg 51%
    22:00 +22°C° 0 mm 6 mps 756 mmHg 47%
    23:00 +23°C° 0 mm 7 mps 756 mmHg 42%

    Day after tomorrow, 25 July, Wednesday

    Time Temperature Precipitation Wind Pressure Humidity
    00:00 +23°C° 0 mm 7 mps 756 mmHg 37%
    01:00 +23°C° 0 mm 7 mps 756 mmHg 38%
    02:00 +23°C° 0 mm 6 mps 756 mmHg 39%
    03:00 +23°C° 0 mm 6 mps 756 mmHg 40%
    04:00 +22°C° 0 mm 6 mps 756 mmHg 44%
    05:00 +22°C° 0 mm 5 mps 756 mmHg 48%
    06:00 +21°C° 0 mm 5 mps 756 mmHg 52%
    07:00 +22°C° 0.1 mm 5 mps 756 mmHg 53%
    08:00 +23°C° 0.1 mm 5 mps 757 mmHg 53%
    09:00 +25°C° 0.1 mm 5 mps 757 mmHg 54%
    10:00 +26°C° 0.2 mm 4 mps 757 mmHg 52%
    11:00 +26°C° 0.2 mm 4 mps 757 mmHg 50%
    12:00 +27°C° 0.2 mm 4 mps 757 mmHg 47%
    13:00 +28°C° 0.1 mm 4 mps 757 mmHg 46%
    14:00 +29°C° 0.1 mm 4 mps 757 mmHg 45%
    15:00 +30°C° 0.1 mm 4 mps 757 mmHg 44%
    16:00 +29°C° 0 mm 4 mps 757 mmHg 47%
    17:00 +29°C° 0 mm 4 mps 757 mmHg 50%
    18:00 +28°C° 0 mm 4 mps 757 mmHg 53%
    19:00 +27°C° 0 mm 5 mps 757 mmHg 53%
    20:00 +27°C° 0 mm 5 mps 757 mmHg 54%
    21:00 +26°C° 0 mm 5 mps 757 mmHg 54%
    22:00 +26°C° 0 mm 5 mps 757 mmHg 53%
    23:00 +26°C° 0 mm 5 mps 757 mmHg 52%

    26 July, Thursday

    Time Temperature Precipitation Wind Pressure Humidity
    00:00 +25°C° 0 mm 5 mps 757 mmHg 51%
    01:00 +25°C° 0 mm 5 mps 757 mmHg 51%
    02:00 +25°C° 0 mm 5 mps 758 mmHg 51%
    03:00 +23°C° 0 mm 5 mps 758 mmHg 51%
    04:00 +23°C° 0 mm 5 mps 758 mmHg 53%
    05:00 +23°C° 0 mm 5 mps 758 mmHg 56%
    06:00 +23°C° 0 mm 5 mps 758 mmHg 59%
    07:00 +25°C° 0 mm 5 mps 759 mmHg 57%
    08:00 +26°C° 0 mm 5 mps 759 mmHg 55%
    09:00 +28°C° 0 mm 5 mps 759 mmHg 53%
    10:00 +29°C° 0 mm 6 mps 759 mmHg 50%
    11:00 +32°C° 0 mm 6 mps 759 mmHg 46%
    12:00 +33°C° 0 mm 6 mps 759 mmHg 43%
    13:00 +34°C° 0 mm 6 mps 759 mmHg 41%
    14:00 +34°C° 0 mm 6 mps 759 mmHg 39%
    15:00 +35°C° 0 mm 6 mps 759 mmHg 36%
    16:00 +34°C° 0 mm 6 mps 759 mmHg 40%
    17:00 +33°C° 0 mm 5 mps 759 mmHg 44%
    18:00 +30°C° 0 mm 5 mps 759 mmHg 48%
    19:00 +30°C° 0 mm 5 mps 759 mmHg 48%
    20:00 +29°C° 0 mm 5 mps 759 mmHg 49%
    21:00 +28°C° 0 mm 5 mps 760 mmHg 49%
    22:00 +27°C° 0 mm 5 mps 760 mmHg 51%
    23:00 +26°C° 0 mm 4 mps 760 mmHg 53%

    27 July, Friday

    Time Temperature Precipitation Wind Pressure Humidity
    00:00 +26°C° 0 mm 4 mps 760 mmHg 54%
    01:00 +25°C° 0 mm 4 mps 760 mmHg 56%
    02:00 +23°C° 0 mm 4 mps 760 mmHg 57%
    03:00 +24°C° 0 mm 3 mps 760 mmHg 58%
    04:00 +24°C° 0 mm 3 mps 760 mmHg 60%
    05:00 +22°C° 0 mm 3 mps 760 mmHg 61%
    06:00 +22°C° 0 mm 3 mps 760 mmHg 63%
    07:00 +23°C° 0 mm 4 mps 760 mmHg 61%
    08:00 +25°C° 0 mm 4 mps 760 mmHg 58%
    09:00 +26°C° 0 mm 5 mps 760 mmHg 56%
    10:00 +28°C° 0 mm 5 mps 760 mmHg 51%
    11:00 +29°C° 0 mm 5 mps 760 mmHg 47%
    12:00 +32°C° 0 mm 5 mps 760 mmHg 43%
    13:00 +32°C° 0 mm 5 mps 760 mmHg 40%
    14:00 +33°C° 0 mm 4 mps 759 mmHg 37%
    15:00 +34°C° 0 mm 4 mps 759 mmHg 35%
    16:00 +33°C° 0 mm 4 mps 759 mmHg 38%
    17:00 +31°C° 0 mm 3 mps 759 mmHg 41%
    18:00 +31°C° 0 mm 3 mps 759 mmHg 44%
    19:00 +29°C° 0 mm 3 mps 759 mmHg 46%
    20:00 +28°C° 0 mm 3 mps 759 mmHg 47%
    21:00 +26°C° 0 mm 2 mps 759 mmHg 49%
    22:00 +26°C° 0 mm 2 mps 759 mmHg 49%
    23:00 +26°C° 0 mm 2 mps 759 mmHg 49%

    28 July, Saturday

    Time Temperature Precipitation Wind Pressure Humidity
    00:00 +25°C° 0 mm 2 mps 759 mmHg 50%
    01:00 +25°C° 0 mm 2 mps 758 mmHg 50%
    02:00 +25°C° 0 mm 3 mps 758 mmHg 50%
    03:00 +25°C° 0 mm 3 mps 758 mmHg 51%
    04:00 +25°C° 0 mm 3 mps 758 mmHg 54%
    05:00 +24°C° 0 mm 3 mps 758 mmHg 56%
    06:00 +24°C° 0 mm 3 mps 758 mmHg 59%
    07:00 +23°C° 0 mm 4 mps 758 mmHg 60%
    08:00 +23°C° 0 mm 4 mps 758 mmHg 61%
    09:00 +23°C° 0 mm 4 mps 758 mmHg 62%
    10:00 +26°C° 0 mm 4 mps 758 mmHg 58%
    11:00 +27°C° 0 mm 4 mps 758 mmHg 55%
    12:00 +29°C° 0 mm 4 mps 758 mmHg 52%
    13:00 +30°C° 0 mm 3 mps 758 mmHg 50%
    14:00 +31°C° 0 mm 3 mps 757 mmHg 47%
    15:00 +33°C° 0 mm 3 mps 757 mmHg 45%
    16:00 +31°C° 0 mm 3 mps 757 mmHg 47%
    17:00 +30°C° 0 mm 3 mps 757 mmHg 49%
    18:00 +30°C° 0 mm 3 mps 757 mmHg 51%
    19:00 +29°C° 0 mm 3 mps 757 mmHg 51%
    20:00 +28°C° 0 mm 3 mps 757 mmHg 51%
    21:00 +27°C° 0 mm 3 mps 757 mmHg 51%
    22:00 +26°C° 0 mm 3 mps 757 mmHg 53%
    23:00 +26°C° 0 mm 3 mps 757 mmHg 56%
    Show more